Location: Linz
(48.3300°N, 14.3000°E)
Time: 05:11:59
(UTC+01:00)

N. Korean satellite - Pass Details

Date: 11 November 2017
Orbit: 460 x 514 km, 97.2° (Epoch: 20 November)

Event Time Altitude Azimuth Distance (km) Brightness Sun altitude
Rises 18:06:59 0° 173° (S) 2,475 10.2 -16.3°
Reaches altitude 10° 18:09:01 10° 177° (S) 1,608 9.3 -16.7°
Maximum altitude 18:12:26 63° 259° (WSW) 526 6.9 -17.2°
Drops below altitude 10° 18:15:56 10° 341° (NNW) 1,639 9.4 -17.8°
Sets 18:18:01 0° 345° (NNW) 2,529 10.3 -18.2°
